Temp
6 6 5 4 4 3 3 2 2 2 1 1 0 -0 -1 -2 -2 -3 -3 -4 -4 -5 -5 -5 -5 -5 -5 -4 -4 -4 -5 -5 -5 -5 -5 -6 -6 -6 -6 -5 -5 -5 -4
6 5 4 4 3 3 2 2 2 1 1 1 0 -0 -1 -2 -3 -3 -4 -4 -5 -5 -6 -6 -6 -5 -5 -5 -5 -5 -5 -6 -6 -6 -6 -6 -6 -6 -6 -6 -6 -5 -5
6 5 4 3 3 2 2 2 1 1 1 0 -0 -1 -1 -2 -3 -4 -4 -5 -5 -6 -6 -6 -6 -7 -6 -6 -6 -5 -6 -6 -7 -7 -6 -7 -6 -6 -6 -6 -6 -6 -6
5 4 3 3 2 2 2 1 1 1 1 0 -0 -1 -2 -2 -4 -4 -5 -5 -6 -7 -7 -7 -7 -7 -7 -6 -6 -6 -7 -7 -7 -7 -7 -6 -6 -6 -6 -6 -6 -6 -6
4 4 3 3 2 2 1 1 1 1 0 0 -1 -2 -2 -4 -5 -5 -6 -6 -7 -7 -8 -8 -8 -8 -7 -7 -7 -7 -7 -7 -7 -7 -7 -7 -7 -7 -7 -7 -7 -7 -6
4 3 3 2 2 1 1 1 1 0 0 -0 -1 -2 -3 -5 -5 -6 -6 -7 -7 -8 -8 -9 -9 -8 -8 -8 -8 -7 -7 -7 -7 -8 -8 -7 -7 -7 -7 -7 -7 -7 -6
3 3 2 2 2 1 1 0 0 -0 -0 -1 -2 -3 -4 -5 -6 -6 -7 -8 -8 -9 -9 -9 -9 -9 -9 -9 -8 -8 -8 -8 -8 -8 -8 -8 -8 -8 -8 -8 -7 -7 -7
2 2 2 2 1 1 0 -0 -0 -1 -1 -2 -3 -4 -5 -6 -6 -6 -8 -8 -9 -9 -9 -9 -9 -9 -9 -8 -8 -9 -9 -9 -9 -9 -9 -9 -9 -9 -9 -8 -8 -8 -7
1 2 2 1 0 -0 -0 -1 -1 -2 -3 -4 -4 -5 -6 -6 -7 -7 -8 -9 -9 -9 -9 -10 -9 -10 -9 -8 -9 -10 -10 -10 -9 -10 -10 -10 -9 -9 -9 -9 -9 -8 -8
1 1 1 0 -0 -1 -1 -2 -3 -3 -4 -5 -6 -6 -8 -8 -8 -8 -8 -9 -9 -9 -10 -10 -10 -9 -9 -8 -9 -10 -10 -10 -11 -11 -11 -11 -11 -11 -10 -10 -10 -9 -8
1 0 -0 -0 -1 -2 -2 -3 -3 -4 -5 -6 -7 -8 -8 -9 -9 -9 -9 -9 -9 -10 -10 -10 -10 -9 -9 -9 -10 -11 -10 -10 -12 -12 -12 -11 -11 -11 -11 -11 -11 -10 -9
0 -1 -1 -2 -2 -3 -3 -4 -5 -5 -6 -7 -8 -8 -9 -10 -10 -10 -9 -9 -9 -10 -10 -11 -10 -10 -10 -11 -11 -11 -11 -12 -12 -12 -12 -12 -12 -12 -12 -12 -11 -11 -10
-1 -2 -2 -3 -3 -4 -4 -5 -6 -6 -7 -8 -8 -9 -9 -10 -10 -10 -9 -9 -9 -10 -11 -11 -11 -12 -12 -13 -12 -12 -13 -13 -13 -13 -13 -13 -12 -13 -13 -12 -12 -11 -10
-3 -3 -4 -4 -5 -5 -5 -6 -6 -7 -7 -8 -9 -9 -10 -10 -10 -9 -9 -10 -10 -11 -12 -12 -12 -13 -13 -13 -13 -13 -13 -14 -14 -13 -13 -13 -13 -13 -13 -13 -12 -12 -11
-4 -4 -5 -5 -5 -6 -6 -6 -7 -7 -8 -8 -8 -9 -10 -10 -10 -9 -9 -10 -10 -11 -12 -13 -14 -14 -14 -14 -14 -14 -14 -14 -14 -14 -14 -14 -14 -14 -14 -13 -13 -12 -11
-5 -5 -5 -6 -6 -6 -6 -7 -7 -8 -8 -8 -9 -9 -10 -10 -9 -9 -9 -10 -11 -12 -13 -14 -14 -15 -15 -15 -14 -14 -15 -15 -15 -14 -15 -15 -15 -15 -14 -14 -13 -13 -12
-5 -6 -6 -6 -6 -7 -7 -7 -8 -8 -8 -8 -8 -9 -9 -9 -10 -10 -10 -11 -12 -13 -14 -14 -15 -15 -15 -15 -15 -15 -15 -16 -16 -15 -16 -16 -16 -15 -15 -14 -14 -13 -12
-5 -6 -6 -6 -7 -7 -7 -8 -8 -8 -8 -8 -9 -9 -10 -10 -10 -10 -11 -12 -13 -13 -14 -14 -15 -15 -16 -16 -16 -15 -16 -16 -16 -16 -17 -16 -16 -16 -16 -15 -14 -14 -13
-6 -6 -6 -7 -7 -7 -8 -8 -8 -8 -9 -9 -9 -10 -10 -10 -11 -11 -12 -13 -13 -14 -14 -15 -15 -15 -16 -16 -16 -16 -17 -17 -16 -17 -17 -17 -17 -17 -16 -16 -15 -14 -14
-7 -7 -7 -7 -8 -8 -8 -8 -8 -9 -9 -9 -10 -10 -10 -11 -11 -12 -12 -13 -13 -14 -14 -15 -16 -16 -16 -16 -16 -17 -17 -17 -17 -18 -18 -18 -18 -17 -17 -16 -16 -15 -13
-7 -7 -8 -8 -8 -8 -8 -8 -9 -9 -9 -9 -10 -10 -11 -11 -12 -12 -13 -13 -14 -14 -15 -16 -16 -17 -17 -17 -18 -18 -18 -18 -18 -18 -18 -18 -18 -18 -17 -17 -16 -15 -14
-8 -8 -8 -8 -8 -8 -8 -9 -9 -9 -9 -10 -10 -10 -11 -11 -12 -12 -13 -14 -14 -15 -16 -16 -17 -18 -18 -19 -19 -19 -18 -18 -19 -19 -19 -19 -19 -18 -18 -17 -16 -15 -15
-8 -8 -8 -8 -8 -8 -9 -9 -9 -9 -10 -10 -10 -11 -11 -11 -12 -13 -14 -15 -15 -16 -17 -17 -18 -18 -19 -20 -19 -19 -19 -19 -20 -20 -20 -20 -19 -19 -18 -17 -17 -16 -15
-8 -8 -8 -8 -8 -8 -9 -9 -9 -10 -10 -10 -11 -11 -12 -12 -13 -14 -15 -16 -16 -17 -18 -18 -19 -20 -20 -20 -20 -20 -20 -20 -20 -20 -20 -20 -19 -19 -19 -17 -17 -17 -16
-8 -8 -8 -8 -9 -9 -9 -9 -10 -10 -11 -11 -12 -12 -13 -13 -14 -15 -16 -17 -18 -18 -19 -20 -20 -21 -21 -21 -21 -21 -21 -21 -21 -20 -20 -19 -19 -19 -19 -18 -18 -18 -17
-9 -9 -9 -9 -9 -9 -9 -10 -10 -11 -11 -12 -13 -13 -14 -15 -16 -16 -17 -18 -19 -20 -20 -21 -22 -22 -22 -22 -23 -22 -22 -22 -21 -20 -20 -19 -19 -19 -19 -19 -18 -18 -17
Height
792 797 803 805 808 811 813 814 816 818 819 820 820 819 818 820 820 823 824 823 818 815 812 810 806 803 800 797 795 792 788 783 774 761 761 754 747 741 734 729 724 718 713
789 794 801 802 806 809 811 813 815 816 817 819 819 819 817 818 819 822 822 820 816 813 811 808 805 802 799 796 792 788 785 781 776 758 756 749 745 738 732 723 716 713 708
785 792 796 800 805 807 809 810 812 813 816 818 817 815 816 819 819 819 819 817 814 812 810 808 804 801 797 793 790 785 781 778 773 763 749 746 740 734 726 721 713 706 702
782 789 793 798 802 805 806 808 811 813 816 816 815 816 815 818 818 818 816 815 813 811 809 806 803 799 794 791 787 782 778 774 768 761 750 742 737 731 725 715 703 701 692
778 785 789 795 798 802 804 806 809 812 812 813 812 814 816 818 817 816 814 812 811 809 806 804 800 796 793 789 784 780 775 769 763 756 748 740 733 726 721 713 703 693 686
774 779 785 793 797 800 803 806 807 809 810 811 810 811 815 816 816 815 812 810 809 807 804 801 797 793 789 785 782 777 773 766 760 754 746 737 730 726 718 711 702 690 675
770 776 783 790 795 798 801 806 807 808 809 809 810 811 814 815 814 813 811 809 807 805 802 798 794 790 786 780 775 771 767 763 758 751 742 736 728 723 715 705 699 691 681
770 774 780 786 792 797 800 802 805 808 808 808 810 811 813 814 812 811 809 807 805 802 799 795 791 787 782 777 770 766 762 757 752 747 742 733 726 719 712 704 694 684 675
769 773 779 784 789 794 797 800 804 806 808 809 810 811 811 810 810 809 807 805 803 800 797 793 789 785 779 774 768 762 756 750 746 742 735 728 721 714 707 698 688 679 667
768 775 779 781 788 792 795 799 801 804 807 809 809 809 809 808 808 807 806 804 801 797 794 790 786 782 776 771 766 760 753 747 740 732 726 719 714 707 701 695 686 676 666
767 775 778 782 788 791 794 798 797 803 805 807 806 807 807 807 806 806 804 801 798 795 791 787 783 778 774 769 764 759 753 745 738 731 723 716 708 702 694 687 681 673 662
769 774 777 782 787 790 794 795 799 802 803 804 805 805 805 805 805 804 802 800 796 792 789 784 780 776 771 767 762 756 750 744 736 729 721 713 705 696 688 681 672 664 656
770 773 777 782 785 787 793 796 798 800 801 802 804 804 804 804 803 801 799 796 793 789 787 783 778 774 769 764 759 754 748 742 735 727 720 712 704 695 685 675 665 656 645
769 774 779 782 784 786 793 796 796 798 800 802 802 802 802 802 801 799 796 793 790 787 784 780 776 772 767 762 756 752 747 741 735 728 720 711 702 692 682 674 663 652 641
771 775 778 781 784 787 793 794 795 798 799 800 800 800 800 800 798 797 793 790 788 785 781 778 773 769 764 759 754 750 744 738 732 725 718 709 700 691 681 672 663 651 642
770 774 777 781 784 789 791 792 795 797 798 798 797 797 797 797 796 794 791 788 786 783 780 776 772 768 764 758 753 747 743 737 731 724 718 710 701 691 681 670 663 653 643
768 774 777 780 785 787 788 791 793 795 796 796 796 795 795 796 793 791 789 787 784 781 778 775 771 767 762 757 753 747 742 736 730 724 718 709 701 692 682 672 662 654 642
770 773 776 781 784 785 788 790 792 793 794 794 794 793 793 792 791 789 786 784 782 779 776 772 769 765 760 756 751 745 740 734 728 722 715 708 700 692 682 672 663 654 643
769 774 778 781 782 785 787 789 791 791 792 792 792 791 790 788 787 785 783 781 779 776 773 770 767 763 758 753 748 743 738 732 727 721 714 707 699 691 681 673 663 653 643
771 775 777 779 782 784 786 788 789 789 790 790 789 788 787 786 784 781 780 778 776 773 770 767 763 760 755 750 745 740 735 730 725 719 712 705 698 690 681 672 662 653 641
771 773 776 778 780 782 784 786 787 787 787 787 786 785 784 782 780 778 777 775 773 770 767 764 760 756 752 747 743 738 733 727 723 718 711 704 696 687 679 671 662 653 644
769 772 774 776 778 780 782 783 784 784 784 784 783 782 780 779 777 775 773 771 769 767 763 760 757 753 749 744 740 734 729 725 721 716 709 702 695 687 678 670 660 652 645
767 769 772 774 776 778 779 780 780 780 781 780 779 778 776 775 773 771 770 768 766 763 760 757 753 748 744 740 736 732 728 723 719 714 708 701 693 686 678 670 661 650 642
765 767 770 772 773 775 777 777 777 778 777 777 775 774 772 771 769 768 766 764 762 760 757 753 748 744 739 735 732 729 725 721 716 711 706 699 692 685 678 670 662 653 643
764 766 768 770 772 773 774 774 775 774 774 773 772 770 769 767 766 764 763 761 758 755 752 748 744 739 735 731 727 724 720 716 711 706 702 697 691 684 678 671 662 653 645
762 764 766 768 769 770 771 771 771 771 770 769 768 767 766 764 762 761 759 757 754 751 747 743 739 735 730 726 722 718 714 710 705 702 698 694 689 682 676 670 663 656 647
Wind_Speed
25 21 17 14 12 11 9 8 5 6 4 2 3 7 9 9 7 6 5 12 20 22 19 17 19 21 21 16 20 19 19 16 17 28 32 33 34 34 37 36 33 35 32
26 21 17 14 13 12 10 7 6 5 3 2 1 3 7 7 5 3 7 14 20 21 20 19 20 19 21 22 22 22 15 17 21 30 31 32 31 32 34 37 36 29 33
26 22 19 16 14 13 10 7 6 4 2 3 3 2 6 4 0 2 8 15 19 19 18 18 19 20 22 23 21 21 12 19 22 28 33 31 30 30 35 33 33 35 31
26 23 20 17 14 13 9 6 6 4 4 2 0 4 4 1 2 4 9 14 19 18 17 16 19 21 22 22 23 15 20 22 24 26 30 29 29 29 31 32 37 34 36
28 25 22 17 15 13 10 8 8 6 4 1 5 5 2 3 4 6 9 15 18 18 19 17 19 19 18 20 21 25 26 25 25 25 27 27 27 28 30 33 36 38 35
29 27 23 18 16 14 10 10 10 7 3 5 9 4 8 6 5 7 9 16 18 18 19 21 23 19 21 20 23 23 26 29 26 26 27 25 26 33 31 33 33 29 16
29 28 23 19 17 13 12 12 8 7 5 7 7 8 9 6 6 9 9 16 18 18 20 21 22 22 23 25 27 27 21 25 24 28 28 26 32 32 35 34 31 32 31
25 26 24 21 18 15 14 11 10 7 8 11 10 11 11 8 7 9 9 16 16 17 17 20 22 22 26 26 26 28 25 29 26 25 30 33 32 34 32 32 34 37 33
23 25 25 22 19 17 14 11 10 12 13 12 11 9 4 4 10 11 14 15 14 16 17 20 19 23 24 26 26 23 27 29 23 29 29 30 29 30 30 32 30 27 17
26 26 24 21 19 17 14 14 14 14 13 10 9 6 5 7 9 11 14 13 14 15 18 18 18 22 25 25 27 25 26 26 32 35 33 32 30 31 30 28 29 26 24
28 25 22 19 18 16 16 16 16 13 11 7 6 5 6 7 9 11 13 13 15 16 17 19 20 23 24 25 24 24 27 30 32 29 29 29 30 29 31 31 32 30 29
27 25 23 21 19 17 17 15 12 10 7 5 4 5 6 7 9 12 13 13 16 17 17 17 21 23 22 23 21 24 26 29 26 27 27 28 30 33 35 36 36 35 35
27 26 23 21 18 17 15 14 11 7 5 3 3 3 4 6 10 14 15 14 14 15 14 18 19 19 21 22 20 23 25 25 26 25 27 29 30 35 36 35 36 35 34
27 24 20 18 16 14 12 10 8 7 5 5 4 2 2 4 10 15 17 13 13 15 18 21 21 19 19 20 19 21 24 24 25 25 28 30 32 33 33 33 34 35 33
25 22 17 15 15 14 11 8 8 6 4 4 4 3 4 4 9 15 16 11 14 16 19 21 22 22 19 21 21 21 24 26 25 26 29 31 31 32 33 34 32 33 28
22 19 18 17 14 13 12 10 7 4 3 6 5 6 6 3 9 15 12 11 14 14 17 18 20 19 19 20 22 22 25 26 27 26 29 30 30 31 32 34 31 29 27
21 20 18 15 15 14 13 11 9 6 3 2 2 4 5 4 9 13 11 12 12 13 15 16 17 19 20 19 21 20 25 26 28 23 30 29 31 31 32 31 31 29 30
19 18 18 18 16 12 10 8 6 5 4 2 2 2 4 5 9 10 10 13 13 13 13 15 16 19 21 19 22 20 26 27 27 24 30 28 30 30 31 30 30 29 31
19 19 17 16 11 9 10 8 7 6 5 3 3 4 6 7 8 8 8 10 11 13 14 15 15 19 22 24 23 22 25 27 23 28 28 29 31 30 31 31 31 32 33
17 17 16 14 11 9 10 9 8 6 4 4 5 5 6 8 9 10 10 11 11 13 13 16 16 19 22 24 19 23 24 26 20 26 27 29 30 31 30 32 31 31 31
16 13 13 14 11 12 11 11 7 5 4 5 6 7 7 8 10 10 11 10 12 11 14 14 15 20 23 20 21 22 25 24 22 25 28 29 30 32 31 31 32 30 31
15 13 12 13 10 10 10 8 5 7 6 7 7 9 9 11 12 12 11 11 12 11 14 13 17 21 23 21 23 24 24 21 21 25 30 29 30 31 31 32 32 32 30
10 17 15 12 12 11 10 8 7 7 7 7 8 10 11 12 14 13 10 9 10 13 13 17 22 25 23 18 19 19 22 18 25 31 33 32 30 31 30 31 32 33 31
9 15 17 12 10 11 10 8 7 7 7 8 9 10 11 13 13 6 7 11 14 14 18 22 24 22 19 21 20 19 18 24 29 31 28 30 31 32 30 29 30 32 32
13 13 13 11 10 9 8 8 8 7 6 7 7 8 9 8 6 10 14 13 14 18 22 24 22 20 21 21 20 20 24 28 28 24 23 27 27 31 27 29 30 31 31
14 14 13 12 10 9 8 8 7 6 7 7 8 8 8 11 12 13 11 15 18 21 22 23 22 22 22 23 23 27 28 26 21 20 23 24 26 30 29 29 30 29 28
Wind_Direction
160 158 158 149 148 147 145 133 117 127 121 101 43 38 41 43 35 16 20 356 360 359 357 348 348 346 330 321 325 311 302 302 305 310 314 317 317 318 318 319 318 314 313
160 158 161 153 153 150 144 135 133 130 112 142 48 39 49 39 27 26 4 1 2 359 356 353 348 344 338 335 323 310 309 315 315 308 317 318 316 317 317 316 317 315 310
161 164 158 156 158 157 155 155 151 135 139 180 202 75 54 15 344 16 4 3 1 359 354 350 343 340 334 331 332 318 326 321 313 308 311 315 315 319 317 316 315 314 310
162 163 157 160 164 163 164 157 156 150 164 170 105 104 66 88 121 11 6 2 359 354 351 347 339 337 332 335 327 334 328 321 316 309 310 312 315 319 318 316 316 317 314
162 162 161 164 166 164 160 153 165 163 139 140 137 116 108 137 71 27 3 1 358 354 352 343 339 336 331 330 334 331 324 316 311 315 311 311 315 321 321 317 311 312 313
161 163 160 164 166 163 160 162 156 147 133 125 144 123 147 118 71 31 4 357 353 353 347 345 346 337 337 333 328 324 320 320 317 313 310 305 313 315 315 311 310 312 312
159 160 160 161 162 160 158 154 147 140 143 132 121 125 129 103 55 21 6 354 350 347 345 344 342 341 338 335 329 324 333 324 317 314 303 316 313 313 311 309 308 304 302
154 154 161 159 156 156 152 145 141 140 140 127 113 130 115 83 41 16 10 353 346 341 341 338 340 339 337 332 335 336 332 329 325 319 318 310 310 312 311 308 305 301 300
156 155 161 156 152 151 146 144 147 135 129 120 120 129 108 38 21 11 359 352 341 339 337 336 337 336 333 337 340 335 330 327 326 323 318 316 315 315 314 316 309 308 306
155 158 156 152 151 148 147 145 138 136 132 131 120 93 44 5 15 7 354 348 340 340 337 334 338 339 338 340 340 339 326 331 335 332 325 323 322 320 319 315 310 305 305
155 152 146 147 147 149 143 147 138 145 143 129 104 55 26 22 14 1 353 351 342 338 333 331 336 337 338 338 337 334 332 333 330 326 323 324 325 324 321 318 314 307 303
149 146 140 143 146 147 152 141 147 152 140 111 86 51 34 23 9 355 349 346 342 336 334 341 340 337 338 338 338 338 337 335 330 328 328 328 327 326 323 320 316 312 306
152 144 144 145 147 148 152 150 146 142 131 108 118 53 29 14 5 0 348 340 341 345 350 345 343 342 343 343 342 342 341 338 335 332 331 327 326 323 321 322 321 320 317
149 148 153 155 145 146 158 162 156 153 152 162 178 208 313 345 359 357 342 345 360 357 351 349 351 347 343 339 339 342 342 339 335 332 330 327 327 328 327 327 324 325 323
152 153 153 156 154 149 166 167 160 161 170 194 217 226 244 320 352 346 337 2 357 353 347 354 353 349 341 343 341 340 342 340 337 335 336 333 330 330 328 329 327 325 324
157 157 157 160 155 165 167 156 164 168 223 232 249 263 216 301 331 343 341 3 353 349 352 357 352 347 337 336 338 334 341 337 335 333 337 333 331 330 328 328 328 327 324
165 165 164 164 172 166 160 168 174 186 185 145 257 265 218 314 333 340 338 351 351 347 357 356 351 347 339 334 335 332 336 333 332 332 336 331 331 329 330 328 328 327 325
169 165 169 176 174 174 180 181 188 206 215 239 258 247 243 317 333 338 337 338 343 349 348 347 346 347 346 331 330 330 334 333 332 336 335 332 331 330 329 327 327 325 326
165 174 178 178 180 190 193 193 216 214 220 241 265 270 296 319 329 335 338 338 330 334 338 339 338 341 343 337 336 332 331 331 331 336 334 333 331 330 327 326 325 324 325
176 171 173 176 182 190 193 212 210 214 234 261 276 286 296 306 323 329 333 332 331 328 328 332 327 332 339 340 335 333 328 330 331 336 334 332 330 328 325 325 325 326 326
175 183 199 193 199 220 215 202 221 234 244 280 279 294 295 292 306 312 317 317 322 316 326 321 317 329 337 341 328 330 327 325 335 335 333 330 329 327 325 325 324 326 326
184 191 187 197 201 193 202 211 245 237 257 282 288 303 299 296 297 299 299 304 314 315 316 312 320 330 333 330 330 330 331 321 339 336 333 329 326 326 325 326 326 327 327
220 211 199 200 203 212 206 232 242 241 274 281 296 298 301 298 296 293 293 307 306 314 314 319 326 328 329 330 333 335 334 331 338 335 335 330 325 325 325 325 327 325 327
191 187 190 197 199 210 225 243 247 264 274 286 303 310 313 314 296 272 290 306 309 312 321 327 329 328 328 329 331 330 330 321 324 327 330 331 327 331 323 325 325 324 324
211 203 205 213 210 218 230 245 254 262 280 298 301 303 298 295 278 298 306 304 311 321 326 329 330 329 330 327 327 321 320 323 324 327 333 333 333 337 324 324 323 323 321
216 204 212 223 225 234 247 255 254 258 277 285 296 299 297 300 300 301 300 311 320 325 328 330 329 331 329 328 326 323 326 331 335 337 338 336 337 337 327 325 324 322 320